sat.trackr.live / text

‹ back to catalog

STARLINK-30511

NORAD 57978 · 2023-151Q

PAYLOAD ACTIVE UNKNOWN

§ Identity

Operator
Country
US
Launch date
2023-09-30
Launch site
AFETR
Launch vehicle
Mass (kg)
RCS (m²)

Purposes: comms

External: N2YO · Heavens-Above · Gunter

§ Orbital elements

Epoch: 2026-05-24T19:21:16.493760Z

Period
94.27 min
Inclination
43.0048°
Eccentricity
0.0001806
Mean motion
15.27608023 rev/d
Perigee alt
481.7 km
Apogee alt
484.2 km
Semi-major
6,861.1 km
B*
1.8732e-4
RAAN
280.8881°
Arg perigee
268.5048°
Mean anomaly
91.5597°
Rev number
14,723

§ Raw data

STARLINK-305111 57978U 23151Q   26144.80644090  .00004900  00000+0  18732-3 0  99922 57978  43.0048 280.8881 0001806 268.5048  91.5597 15.27608023147237

JSON: /api/v1/satellites/57978 · /tle

For live sub-satellite position, see the globe view (requires WebGL).

§ Visibility from observer

Set your observer location to see the next 7 days of passes ≥ 10°. The values pass through the URL so the page stays shareable.

No JS? Fill the form by hand. The geolocation button needs JavaScript.